Location: Augsburg
(48.3836°N, 10.8929°E)
Time: 10:06:21
(UTC+01:00)

ISS - Pass Details

Date: 12 January 2018
Orbit: 402 x 407 km, 51.6° (Epoch: 21 January)

Event Time Altitude Azimuth Distance (km) Brightness Sun altitude
Exits shadow 06:23:42 39° 258° (WSW) 625 -3.4 -16.2°
Maximum altitude 06:24:31 51° 210° (SSW) 518 -3.5 -16.0°
Drops below altitude 10° 06:27:42 10° 133° (SE) 1,463 0.0 -15.5°
Sets 06:29:48 0° 128° (SE) 2,321 1.3 -15.2°
